Time,TemperatureF,DewpointF,PressureIn,WindDirection,WindDirectionDegrees,WindSpeedMPH,WindSpeedGustMPH,Humidity,HourlyPrecipIn,Conditions,Clouds,dailyrainin,SoftwareType,DateUTC
2013-09-29 00:43:00,64.0,20.0,29.97,North,-999,0.0,0.0,18,0.00,,,-99.99,,2013-09-29 07:43:00,
2013-09-29 01:22:00,65.0,20.0,29.97,North,-999,0.0,0.0,18,0.00,,,-99.99,,2013-09-29 08:22:00,
2013-09-29 01:32:00,65.0,20.0,29.97,North,-999,0.0,0.0,18,0.00,,,-99.99,,2013-09-29 08:32:00,
2013-09-29 01:42:00,65.0,20.0,29.97,North,-999,0.0,0.0,18,0.00,,,-99.99,,2013-09-29 08:42:00,
2013-09-29 02:22:00,62.0,22.0,29.97,North,0,0.0,1.0,21,0.00,,,-99.99,,2013-09-29 09:22:00,
2013-09-29 02:33:00,62.0,22.0,29.97,North,0,0.0,1.0,21,0.00,,,-99.99,,2013-09-29 09:33:00,
2013-09-29 02:43:00,62.0,22.0,29.97,North,0,0.0,1.0,21,0.00,,,-99.99,,2013-09-29 09:43:00,
2013-09-29 03:43:00,62.0,20.0,29.96,North,0,0.0,1.0,20,0.00,,,-99.99,,2013-09-29 10:43:00,
2013-09-29 04:42:00,62.0,22.0,29.95,North,0,0.0,2.0,21,0.00,,,-99.99,,2013-09-29 11:42:00,
2013-09-29 05:42:00,63.0,21.0,29.94,North,0,0.0,1.0,20,0.00,,,-99.99,,2013-09-29 12:42:00,
2013-09-29 06:42:00,61.0,21.0,29.94,North,-999,0.0,0.0,21,0.00,,,-99.99,,2013-09-29 13:42:00,
2013-09-29 07:42:00,59.0,23.0,29.96,North,-999,0.0,0.0,25,0.00,,,-99.99,,2013-09-29 14:42:00,
2013-09-29 08:45:00,62.0,25.0,29.97,North,0,0.0,1.0,24,0.00,,,-99.99,,2013-09-29 15:45:00,
2013-09-29 09:44:00,72.0,29.0,29.96,North,0,0.0,1.0,20,0.00,,,-99.99,,2013-09-29 16:44:00,
2013-09-29 10:24:00,77.0,32.0,29.96,North,-999,0.0,0.0,19,0.00,,,-99.99,,2013-09-29 17:24:00,
2013-09-29 10:34:00,77.0,32.0,29.96,North,-999,0.0,0.0,19,0.00,,,-99.99,,2013-09-29 17:34:00,
2013-09-29 10:43:00,77.0,32.0,29.96,North,-999,0.0,0.0,19,0.00,,,-99.99,,2013-09-29 17:43:00,
2013-09-29 11:42:00,80.0,27.0,29.96,North,0,0.0,1.0,14,0.00,,,-99.99,,2013-09-29 18:42:00,
2013-09-29 12:42:00,83.0,25.0,29.95,North,0,0.0,5.0,12,0.00,,,-99.99,,2013-09-29 19:42:00,
2013-09-29 13:42:00,86.0,23.0,29.93,North,0,0.0,7.0,10,0.00,,,-99.99,,2013-09-29 20:42:00,
2013-09-29 14:44:00,88.0,25.0,29.90,North,0,0.0,7.0,10,0.00,,,-99.99,,2013-09-29 21:44:00,
2013-09-29 15:43:00,89.0,20.0,29.88,North,0,0.0,7.0,8,0.00,,,-99.99,,2013-09-29 22:43:00,
2013-09-29 16:43:00,90.0,21.0,29.86,North,0,0.0,9.0,8,0.00,,,-99.99,,2013-09-29 23:43:00,
2013-09-29 17:42:00,89.0,23.0,29.86,North,0,0.0,7.0,9,0.00,,,-99.99,,2013-09-30 00:42:00,
2013-09-29 18:42:00,82.0,28.0,29.86,South,190,1.0,12.0,14,0.00,,,-99.99,,2013-09-30 01:42:00,
2013-09-29 19:42:00,77.0,27.0,29.88,SSE,150,1.0,8.0,16,0.00,,,-99.99,,2013-09-30 02:42:00,
2013-09-29 20:44:00,73.0,27.0,29.90,North,-999,0.0,0.0,18,0.00,,,-99.99,,2013-09-30 03:44:00,
2013-09-29 21:44:00,69.0,26.0,29.91,North,0,0.0,1.0,20,0.00,,,-99.99,,2013-09-30 04:44:00,
2013-09-29 22:43:00,65.0,26.0,29.93,North,-999,0.0,0.0,23,0.00,,,-99.99,,2013-09-30 05:43:00,
2013-09-29 23:42:00,65.0,27.0,29.93,North,-999,0.0,0.0,24,0.00,,,-99.99,,2013-09-30 06:42:00,